Location: Cahoon Acres
(40.8736°N, 111.8994°W)
Time: 07:30:36
(UTC+00:00)

Vanguard 1 Rocket - Visible Passes

Search period start: 26 May 2020 00:00
Search period end: 05 June 2020 00:00
Orbit: 653 x 4224 km, 34.3° (Epoch: 25 May)

Date Brightness Start Highest point End Pass type
(mag) Time Alt. Az. Time Alt. Az. Time Alt. Az.
26 May10.905:53:45ESE05:53:45ESE05:26:03Svisible
26 May 9.6 08:10:55 37° S 08:12:21 38° SSE 08:21:18 10° E visible
26 May 8.5 10:28:04 13° WSW 10:39:09 54° S 10:45:43 10° E visible
27 May 10.1 07:02:25 29° SE 07:02:25 29° SE 07:09:58 10° E visible
27 May 9.0 09:19:34 27° SW 09:27:28 51° S 09:35:22 10° E visible
28 May 10.6 05:31:22 10° S 05:53:36 18° ESE 05:57:32 10° ESE visible
28 May 9.5 08:10:41 38° SSW 08:15:17 45° SSE 08:24:44 10° E visible
28 May 8.5 10:29:07 10° WSW 10:42:10 58° S 10:48:55 10° ESE visible
29 May 11.0 04:22:05 10° S 04:44:06 - ESE 04:28:54 15° SSE visible
29 May 9.9 06:43:57 10° SSW 07:02:35 38° SSE 07:13:37 10° E visible
29 May 9.0 09:18:02 18° WSW 09:30:26 57° S 09:38:37 10° E visible
30 May 10.3 05:31:07 10° SSW 05:49:29 30° SSE 06:01:41 10° E visible
30 May 9.4 07:59:29 10° SW 08:18:10 52° SSE 08:28:02 10° E visible
30 May 8.6 10:31:38 10° W 10:45:10 59° S 10:52:05 10° ESE visible
31 May 10.8 04:20:07 10° S 04:36:07 22° SE 04:48:18 10° E visible
31 May 9.8 06:45:02 10° SW 07:05:22 45° SSE 07:17:02 10° E visible
31 May 9.0 09:16:36 10° WSW 09:33:23 61° S 09:41:49 10° E visible
01 Jun 11.1 03:12:52 10° SSE 03:22:43 14° SE 03:31:24 10° ESE visible
01 Jun 10.2 05:31:31 10° SSW 05:52:08 37° SSE 06:05:24 10° E visible
01 Jun 9.4 08:01:21 10° WSW 08:21:02 58° S 08:31:15 10° E visible
01 Jun 8.6 10:34:11 10° W 10:48:07 59° S 10:55:13 10° ESE visible
02 Jun 10.7 04:19:31 10° SSW 04:38:37 28° SE 04:52:41 10° E visible
02 Jun 9.8 06:46:27 10° SW 07:08:07 52° SSE 07:20:19 10° E visible
02 Jun 9.0 09:18:57 10° WSW 09:36:18 64° S 09:44:59 10° ESE visible
03 Jun 11.0 03:09:51 10° S 03:25:06 20° SE 03:37:55 10° E visible
03 Jun 10.2 05:32:24 10° SW 05:54:43 44° SSE 06:08:50 10° E visible
03 Jun 9.4 08:03:25 10° WSW 08:23:53 63° S 08:34:26 10° E visible
03 Jun 8.7 10:36:45 10° W 10:50:59 56° SSW 10:58:17 10° ESE visible
04 Jun 10.6 04:19:41 10° SSW 04:41:02 35° SE 04:56:29 10° E visible
04 Jun 9.8 06:48:08 10° SW 07:10:50 58° SSE 07:23:31 10° E visible
04 Jun 9.0 09:21:21 10° W 09:39:12 65° S 09:48:07 10° ESE visible
